Orbital Elements at Epoch 2459200.5 (2020-Dec-17.0) TDB
Reference: JPL 26 (heliocentric ecliptic J2000)
Element | Value | Uncertainty (1-sigma) | Units |
e | .1664147610664888 | 5.0751e-08 | |
a | 3.197060966304553 | 1.9245e-08 | au |
q | 2.665022829481983 | 1.616e-07 | au |
i | 4.308414265160225 | 5.1559e-06 | deg |
node | 340.7184756257843 | 5.1353e-05 | deg |
peri | 10.67854131125324 | 5.2515e-05 | deg |
M | 153.4416006972662 | 1.2317e-05 | deg |
tp | 2458310.550376460006 (2018-Jul-11.05037646) | 6.8772e-05 | TDB |
period | 2087.972642481082 5.72 | 1.8853e-05 5.162e-08 | d yr |
n | .1724160521433948 | 1.5568e-09 | deg/d |
Q | 3.729099103127123 | 2.2448e-08 | au |
|
| | Orbit Determination Parameters
Additional Information
|